EW1710 Weather Reports


Display with metric or nautical units.
time (UTC)temp
F
wind
direction
speed
MPH
gust
MPH
rain 1hr
in
rain 24hr
in
rain mn
in
humidity
%
barometer
mb
20260507181900 55 299 5.0 6.0 0.00 0.00 0.00 45 1013.4
20260507181356 55 324 3.0 5.0 0.00 0.00 0.00 50 1013.4
20260507180853 55 314 2.0 2.0 0.00 0.00 0.00 46 1013.3
20260507180350 55 326 3.0 3.0 0.00 0.00 0.00 47 1013.4
20260507175846 55 320 4.0 5.0 0.00 0.00 0.00 51 1013.4
20260507175343 55 299 3.0 3.0 0.00 0.00 0.00 48 1013.5
20260507174840 56 341 3.0 3.0 0.00 0.00 0.00 46 1013.5
20260507174338 56 330 4.0 5.0 0.00 0.00 0.00 46 1013.5
20260507173835 55 347 1.0 2.0 0.00 0.00 0.00 51 1013.3
20260507173332 56 296 6.0 7.0 0.00 0.00 0.00 43 1013.5
20260507172828 55 233 1.0 1.0 0.00 0.00 0.00 46 1013.6
20260507172325 55 289 1.0 1.0 0.00 0.00 0.00 48 1013.7
20260507171821 55 311 2.0 2.0 0.00 0.00 0.00 47 1013.6
20260507171318 57 312 4.0 6.0 0.00 0.00 0.00 45 1013.6
20260507170815 55 293 5.0 8.0 0.00 0.00 0.00 49 1013.7
20260507170311 55 320 5.0 7.0 0.00 0.00 0.00 47 1013.6
20260507165807 56 311 3.0 3.0 0.00 0.00 0.00 45 1013.5
20260507165306 57 359 5.0 6.0 0.00 0.00 0.00 43 1013.6
20260507164759 56 310 5.0 6.0 0.00 0.00 0.00 47 1013.5
20260507164257 57 182 0.0 1.0 0.00 0.00 0.00 44 1013.5
20260507163754 57 215 3.0 3.0 0.00 0.00 0.00 47 1013.5
20260507163252 58 312 7.0 9.0 0.00 0.00 0.00 44 1013.7
20260507162747 58 344 0.0 1.0 0.00 0.00 0.00 46 1013.6
20260507162243 58 332 3.0 3.0 0.00 0.00 0.00 45 1013.6
20260507161741 57 352 1.0 1.0 0.00 0.00 0.00 40 1013.7
20260507161237 57 275 1.0 1.0 0.00 0.00 0.00 44 1013.6
20260507160733 57 25 0.0 1.0 0.00 0.00 0.00 42 1013.6
20260507160229 57 14 2.0 5.0 0.00 0.00 0.00 43 1013.6
20260507155725 57 306 2.0 2.0 0.00 0.00 0.00 46 1013.7
20260507155222 56 293 2.0 2.0 0.00 0.00 0.00 43 1013.7
20260507154719 56 29 0.0 0.0 0.00 0.00 0.00 42 1013.8
20260507154216 54 287 3.0 5.0 0.00 0.00 0.00 47 1013.8
20260507153712 55 321 3.0 5.0 0.00 0.00 0.00 45 1013.5
20260507153209 54 324 3.0 3.0 0.00 0.00 0.00 44 1013.8
20260507152706 56 317 4.0 5.0 0.00 0.00 0.00 46 1013.8
20260507152201 57 343 4.0 5.0 0.00 0.00 0.00 49 1013.9
20260507151658 58 319 3.0 6.0 0.00 0.00 0.00 44 1013.9
20260507151154 56 194 3.0 3.0 0.00 0.00 0.00 49 1013.9
20260507150651 55 141 3.0 5.0 0.00 0.00 0.00 48 1013.9
20260507150148 55 298 1.0 2.0 0.00 0.00 0.00 48 1013.8
20260507145644 55 325 6.0 6.0 0.00 0.00 0.00 44 1013.9
20260507145141 56 332 4.0 5.0 0.00 0.00 0.00 45 1013.8
20260507144637 57 26 1.0 1.0 0.00 0.00 0.00 41 1013.8
20260507144136 55 36 0.0 1.0 0.00 0.00 0.00 47 1013.8
20260507143632 57 323 3.0 6.0 0.00 0.00 0.00 41 1013.7
20260507143129 56 83 1.0 1.0 0.00 0.00 0.00 43 1013.8
20260507142624 56 308 3.0 3.0 0.00 0.00 0.00 44 1013.7
20260507142122 55 53 0.0 1.0 0.00 0.00 0.00 44 1013.7
20260507141618 55 338 3.0 5.0 0.00 0.00 0.00 46 1014.0
20260507141115 55 250 3.0 2.0 0.00 0.00 0.00 45 1014.0
20260507140611 54 150 0.0 1.0 0.00 0.00 0.00 50 1014.0
20260507140109 54 27 2.0 2.0 0.00 0.00 0.00 47 1013.9
20260507135606 54 300 1.0 2.0 0.00 0.00 0.00 46 1014.2
20260507135103 54 338 5.0 7.0 0.00 0.00 0.00 47 1014.1
20260507134559 54 16 2.0 3.0 0.00 0.00 0.00 53 1014.1
20260507134055 53 197 1.0 1.0 0.00 0.00 0.00 52 1014.4
20260507133551 53 267 2.0 2.0 0.00 0.00 0.00 59 1014.3
20260507133049 53 4 4.0 5.0 0.00 0.00 0.00 53 1014.3
20260507132546 52 33 1.0 1.0 0.00 0.00 0.00 58 1014.4
20260507132042 52 17 2.0 2.0 0.00 0.00 0.00 55 1014.3
20260507131539 52 41 2.0 3.0 0.00 0.00 0.00 56 1014.4
20260507131037 51 300 1.0 2.0 0.00 0.00 0.00 59 1014.5
20260507130533 50 275 2.0 2.0 0.00 0.00 0.00 61 1014.5
20260507130032 50 353 3.0 3.0 0.00 0.00 0.00 62 1014.2
20260507125530 50 169 2.0 2.0 0.00 0.00 0.00 65 1014.5
20260507125027 50 308 4.0 5.0 0.00 0.00 0.00 62 1014.5
20260507124523 49 309 2.0 2.0 0.00 0.00 0.00 66 1014.4
20260507124021 49 318 2.0 2.0 0.00 0.00 0.00 66 1014.4
20260507123519 49 336 1.0 1.0 0.00 0.00 0.00 68 1014.6
20260507123015 49 240 0.0 0.0 0.00 0.00 0.00 66 1014.4
20260507122510 48 28 1.0 1.0 0.00 0.00 0.00 69 1014.5
20260507122007 48 329 2.0 2.0 0.00 0.00 0.00 69 1014.3
20260507121502 48 313 3.0 3.0 0.00 0.00 0.00 68 1014.1
20260507120958 48 16 1.0 1.0 0.00 0.00 0.00 69 1014.0
20260507120455 48 353 3.0 3.0 0.00 0.00 0.00 69 1014.2
20260507115952 48 259 1.0 1.0 0.00 0.00 0.00 69 1014.1
20260507115448 48 68 3.0 5.0 0.00 0.00 0.00 68 1014.3
20260507114944 47 320 2.0 1.0 0.00 0.00 0.00 69 1014.2
20260507114440 47 258 2.0 2.0 0.00 0.00 0.00 70 1014.3
20260507113938 46 12 2.0 2.0 0.00 0.00 0.00 71 1014.2
20260507113434 46 7 2.0 2.0 0.00 0.00 0.00 72 1014.4
20260507112932 45 282 2.0 2.0 0.00 0.00 0.00 72 1014.3
20260507112429 45 124 0.0 0.0 0.00 0.00 0.00 73 1014.1
20260507111926 44 34 1.0 1.0 0.00 0.00 0.00 74 1014.5
20260507111423 44 160 0.0 0.0 0.00 0.00 0.00 74 1014.0
20260507110920 43 300 1.0 1.0 0.00 0.00 0.00 75 1013.8
20260507110416 43 299 1.0 1.0 0.00 0.00 0.00 77 1013.9
20260507105913 42 207 0.0 0.0 0.00 0.00 0.00 77 1014.0
20260507105409 42 114 0.0 0.0 0.00 0.00 0.00 78 1013.8
20260507104906 42 191 0.0 1.0 0.00 0.00 0.00 78 1014.1
20260507104403 42 153 0.0 0.0 0.00 0.00 0.00 79 1013.9
20260507103859 42 160 0.0 0.0 0.00 0.00 0.00 79 1013.7
20260507103356 42 198 0.0 0.0 0.00 0.00 0.00 78 1013.8
20260507102852 42 240 1.0 1.0 0.00 0.00 0.00 78 1013.8
20260507102348 42 166 0.0 0.0 0.00 0.00 0.00 78 1013.5
20260507101845 42 167 1.0 1.0 0.00 0.00 0.00 78 1013.6
20260507101345 42 317 0.0 0.0 0.00 0.00 0.00 77 1013.8
20260507100842 43 296 1.0 1.0 0.00 0.00 0.00 77 1013.7
20260507100340 43 279 0.0 0.0 0.00 0.00 0.00 76 1013.6
20260507095838 43 219 0.0 0.0 0.00 0.00 0.00 76 1013.7
20260507095334 43 277 0.0 0.0 0.00 0.00 0.00 76 1013.8
20260507094832 43 354 1.0 1.0 0.00 0.00 0.00 76 1013.8
20260507094328 43 218 1.0 1.0 0.00 0.00 0.00 76 1013.8
20260507093825 43 168 0.0 0.0 0.00 0.00 0.00 78 1013.9
20260507093324 43 213 0.0 0.0 0.00 0.00 0.00 77 1013.8
20260507092821 43 157 0.0 1.0 0.00 0.00 0.00 78 1013.6
20260507092318 43 283 0.0 0.0 0.00 0.00 0.00 80 1013.7
20260507091814 41 256 2.0 2.0 0.00 0.00 0.00 86 1013.8
20260507091310 41 125 0.0 0.0 0.00 0.00 0.00 92 1014.0
20260507090805 40 67 0.0 0.0 0.00 0.00 0.00 93 1013.8
20260507090302 40 75 0.0 0.0 0.00 0.00 0.00 94 1013.9
20260507085759 40 124 0.0 0.0 0.00 0.00 0.00 94 1013.9
20260507085256 39 121 0.0 1.0 0.00 0.00 0.00 95 1014.0
20260507084753 39 88 0.0 0.0 0.00 0.00 0.00 95 1014.1
20260507084249 39 91 0.0 0.0 0.00 0.00 0.00 95 1013.9
20260507083747 40 95 0.0 0.0 0.00 0.00 0.00 95 1014.2
20260507083244 39 39 0.0 1.0 0.00 0.00 0.00 95 1014.0
20260507082740 39 200 0.0 0.0 0.00 0.00 0.00 96 1014.0
20260507082235 39 118 0.0 0.0 0.00 0.00 0.00 96 1014.0
20260507081732 38 73 0.0 0.0 0.00 0.00 0.00 96 1014.1
20260507081228 38 73 0.0 0.0 0.00 0.00 0.00 95 1014.2
20260507080725 38 72 0.0 0.0 0.00 0.00 0.00 95 1014.2
20260507080221 38 72 0.0 0.0 0.00 0.00 0.00 95 1014.0
20260507075717 37 72 0.0 0.0 0.00 0.00 0.00 95 1014.1
20260507075214 37 72 0.0 0.0 0.00 0.00 0.00 95 1014.1
20260507074710 37 72 0.0 0.0 0.00 0.00 0.00 95 1014.2
20260507074209 37 72 0.0 0.0 0.00 0.00 0.00 94 1014.1
20260507073704 37 72 0.0 0.0 0.00 0.00 0.00 94 1014.2
20260507073201 37 72 0.0 0.0 0.00 0.00 0.00 94 1014.1
20260507072659 37 72 0.0 0.0 0.00 0.00 0.00 94 1014.3
20260507072156 37 72 0.0 0.0 0.00 0.00 0.00 94 1014.1
20260507071653 37 72 0.0 0.0 0.00 0.00 0.00 93 1014.2
20260507071149 38 72 0.0 0.0 0.00 0.00 0.00 92 1014.1
20260507070647 38 72 0.0 0.0 0.00 0.00 0.00 92 1014.3
20260507070144 39 73 0.0 0.0 0.00 0.00 0.00 93 1014.1
20260507065640 39 73 1.0 0.0 0.00 0.00 0.00 93 1014.5
20260507065137 39 73 0.0 0.0 0.00 0.00 0.00 93 1014.5
20260507064634 39 73 0.0 0.0 0.00 0.00 0.00 93 1014.4
20260507064133 39 73 0.0 0.0 0.00 0.00 0.00 93 1014.3
20260507063630 39 73 0.0 0.0 0.00 0.00 0.00 92 1014.5
20260507063127 39 73 0.0 0.0 0.00 0.00 0.00 92 1014.4
20260507062623 39 73 0.0 0.0 0.00 0.00 0.00 92 1014.4
20260507062121 39 73 0.0 0.0 0.00 0.00 0.00 91 1014.7
20260507061619 39 73 0.0 0.0 0.00 0.00 0.00 91 1014.6
20260507061117 39 73 0.0 0.0 0.00 0.00 0.00 91 1014.6
20260507060615 40 73 0.0 0.0 0.00 0.00 0.00 90 1014.7
20260507060111 40 72 0.0 0.0 0.00 0.00 0.00 90 1014.6
20260507055606 40 72 0.0 0.0 0.00 0.00 0.00 90 1014.7
20260507055102 40 72 0.0 0.0 0.00 0.00 0.00 90 1014.6
20260507054558 40 72 0.0 0.0 0.00 0.00 0.00 90 1014.9
20260507054056 40 72 0.0 0.0 0.00 0.00 0.00 91 1014.8
20260507053553 40 72 0.0 0.0 0.00 0.00 0.00 92 1014.6
20260507053052 40 72 0.0 0.0 0.00 0.00 0.00 91 1015.1
20260507052549 40 72 0.0 0.0 0.00 0.00 0.00 91 1014.8
20260507052046 40 72 0.0 0.0 0.00 0.00 0.00 91 1014.8
20260507051543 41 72 0.0 0.0 0.00 0.00 0.00 91 1014.8
20260507051040 41 72 0.0 0.0 0.00 0.00 0.00 90 1015.1
20260507050537 41 72 0.0 0.0 0.00 0.00 0.00 90 1015.1
20260507050033 41 72 0.0 0.0 0.00 0.00 0.00 90 1015.0
20260507045530 42 72 0.0 0.0 0.00 0.00 0.00 90 1014.9
20260507045027 42 72 0.0 0.0 0.00 0.00 0.00 90 1015.0
20260507044524 42 72 0.0 0.0 0.00 0.00 0.00 89 1015.1
20260507044021 43 72 0.0 0.0 0.00 0.00 0.00 89 1015.0
20260507043517 43 72 0.0 0.0 0.00 0.00 0.00 90 1015.0
20260507043014 43 72 0.0 0.0 0.00 0.00 0.00 90 1015.2
20260507042510 43 72 0.0 0.0 0.00 0.00 0.00 90 1015.0
20260507042005 43 72 0.0 0.0 0.00 0.00 0.00 91 1015.1
20260507041503 43 72 0.0 0.0 0.00 0.00 0.00 91 1015.2
20260507041000 43 72 0.0 0.0 0.00 0.00 0.00 91 1015.1
20260507040455 42 72 0.0 0.0 0.00 0.00 0.00 91 1015.2
20260507035951 42 72 0.0 0.0 0.00 0.38 0.38 90 1015.4
20260507035448 42 72 0.0 0.0 0.00 0.38 0.38 90 1015.3
20260507034945 43 72 0.0 0.0 0.00 0.38 0.38 90 1015.5
20260507034442 42 72 0.0 0.0 0.00 0.38 0.38 90 1015.4
20260507033940 42 72 0.0 0.0 0.00 0.38 0.38 90 1015.3
20260507033437 42 72 0.0 0.0 0.00 0.38 0.38 90 1015.4
20260507032934 42 72 0.0 0.0 0.00 0.38 0.38 90 1015.4
20260507032431 42 72 0.0 0.0 0.00 0.38 0.38 90 1015.5
20260507031927 42 72 0.0 0.0 0.00 0.38 0.38 90 1015.4
20260507031426 42 72 0.0 0.0 0.00 0.38 0.38 89 1015.6
20260507030921 42 72 0.0 0.0 0.00 0.38 0.38 89 1015.5
20260507030418 42 72 0.0 0.0 0.00 0.38 0.38 89 1015.8
20260507025915 42 72 0.0 0.0 0.00 0.38 0.38 89 1015.6
20260507025412 42 72 0.0 0.0 0.00 0.38 0.38 89 1015.7
20260507024910 43 72 0.0 0.0 0.00 0.38 0.38 87 1015.3
20260507024407 43 72 0.0 0.0 0.00 0.38 0.38 87 1015.2
20260507023903 43 72 0.0 0.0 0.00 0.38 0.38 87 1015.4
20260507023400 43 72 0.0 0.0 0.00 0.38 0.38 86 1015.3
20260507022857 44 72 0.0 0.0 0.00 0.38 0.38 85 1015.3
20260507022354 44 72 0.0 0.0 0.00 0.38 0.38 84 1015.2
20260507021849 44 72 0.0 0.0 0.00 0.38 0.38 84 1015.2
20260507021345 44 72 0.0 0.0 0.00 0.38 0.38 83 1015.0
20260507020843 45 72 0.0 0.0 0.00 0.38 0.38 83 1015.1
20260507020339 45 72 0.0 0.0 0.00 0.38 0.38 83 1015.1
20260507015836 45 72 0.0 0.0 0.00 0.38 0.38 82 1015.4
20260507015335 45 72 0.0 0.0 0.00 0.38 0.38 82 1015.3
20260507014831 45 72 0.0 0.0 0.00 0.38 0.38 81 1015.1
20260507014327 45 72 0.0 0.0 0.00 0.38 0.38 80 1015.1
20260507013824 45 72 0.0 0.0 0.00 0.38 0.38 81 1015.0
20260507013321 46 72 0.0 0.0 0.00 0.38 0.38 81 1015.0
20260507012819 46 72 0.0 0.0 0.00 0.38 0.38 80 1014.9
20260507012314 46 72 0.0 0.0 0.00 0.38 0.38 79 1014.9
20260507011812 46 72 0.0 0.0 0.00 0.38 0.38 78 1014.7
20260507011309 46 72 0.0 0.0 0.00 0.38 0.38 79 1014.8
20260507010808 46 72 0.0 0.0 0.00 0.38 0.38 78 1014.8
20260507010304 46 72 0.0 0.0 0.00 0.38 0.38 78 1014.8
20260507005802 46 72 0.0 0.0 0.00 0.38 0.38 77 1014.7
20260507005258 46 72 0.0 0.0 0.00 0.38 0.38 74 1014.7
20260507004754 46 72 0.0 0.0 0.00 0.38 0.38 73 1014.6
20260507004252 46 72 0.0 0.0 0.00 0.38 0.38 72 1014.9
20260507003748 47 72 0.0 0.0 0.00 0.38 0.38 73 1014.5
20260507003244 47 72 0.0 0.0 0.00 0.38 0.38 69 1015.0
20260507002740 47 72 0.0 0.0 0.00 0.38 0.38 71 1014.6
20260507002236 47 72 0.0 0.0 0.00 0.38 0.38 69 1014.8
20260507001733 47 71 0.0 0.0 0.00 0.38 0.38 71 1014.5
20260507001230 48 82 0.0 0.0 0.00 0.38 0.38 71 1014.8
20260507000727 48 82 0.0 0.0 0.00 0.38 0.38 69 1014.7
20260507000222 48 82 0.0 0.0 0.00 0.38 0.38 69 1014.8
20260506235719 48 82 0.0 0.0 0.00 0.38 0.38 69 1014.6
20260506235215 48 82 0.0 0.0 0.00 0.38 0.38 66 1014.8
20260506234712 48 82 0.0 0.0 0.00 0.38 0.38 66 1014.5
20260506234210 48 82 0.0 0.0 0.00 0.38 0.38 65 1014.7
20260506233707 49 140 0.0 0.0 0.00 0.38 0.38 64 1014.6
20260506233203 49 355 0.0 1.0 0.00 0.38 0.38 65 1014.9
20260506232659 49 280 0.0 0.0 0.00 0.38 0.38 65 1014.7
20260506232155 49 279 1.0 1.0 0.00 0.38 0.38 64 1014.7
20260506231652 49 332 2.0 2.0 0.00 0.38 0.38 62 1014.3
20260506231151 49 353 1.0 1.0 0.00 0.38 0.38 61 1014.5
20260506230647 49 55 1.0 1.0 0.00 0.38 0.38 63 1014.4
20260506230144 49 355 0.0 1.0 0.00 0.38 0.38 64 1014.3
20260506225640 50 321 3.0 3.0 0.00 0.38 0.38 63 1014.6
20260506225137 50 18 0.0 0.0 0.00 0.38 0.38 63 1014.6
20260506224633 50 314 1.0 1.0 0.00 0.38 0.38 61 1014.4
20260506224130 50 13 2.0 2.0 0.00 0.38 0.38 61 1014.5
20260506223626 50 19 0.0 0.0 0.00 0.38 0.38 63 1014.2
20260506223122 50 27 0.0 0.0 0.00 0.38 0.38 62 1014.4
20260506222620 50 343 0.0 1.0 0.00 0.38 0.38 63 1014.3
20260506222116 50 7 2.0 2.0 0.00 0.38 0.38 62 1014.1
20260506221614 50 12 2.0 3.0 0.00 0.38 0.38 61 1014.4
20260506221112 50 344 1.0 2.0 0.00 0.38 0.38 62 1014.2
20260506220608 50 18 1.0 1.0 0.00 0.38 0.38 62 1014.1
20260506215600 51 4 0.0 0.0 0.00 0.38 0.38 61 1014.2
20260506215055 51 16 1.0 2.0 0.00 0.38 0.38 61 1013.9
20260506214553 51 331 3.0 3.0 0.00 0.38 0.38 59 1013.8
20260506214050 51 261 3.0 2.0 0.00 0.38 0.38 59 1013.8
20260506213548 52 319 1.0 2.0 0.00 0.38 0.38 58 1013.7
20260506213045 52 307 3.0 5.0 0.00 0.38 0.38 58 1013.6
20260506212542 52 321 5.0 6.0 0.00 0.38 0.38 54 1013.5
20260506212037 53 283 3.0 3.0 0.00 0.38 0.38 55 1013.3
20260506211533 53 38 1.0 1.0 0.00 0.38 0.38 57 1013.5
20260506211030 53 119 1.0 2.0 0.00 0.38 0.38 56 1013.4
20260506210527 53 20 1.0 1.0 0.00 0.38 0.38 56 1013.6
20260506210023 54 291 1.0 2.0 0.00 0.38 0.38 53 1013.5
20260506205520 54 168 1.0 1.0 0.00 0.38 0.38 49 1013.4
20260506205015 54 336 2.0 2.0 0.00 0.38 0.38 49 1013.3
20260506204514 53 323 3.0 3.0 0.00 0.38 0.38 46 1013.5
20260506204010 54 264 5.0 6.0 0.00 0.38 0.38 47 1013.3
20260506203508 54 315 5.0 6.0 0.00 0.38 0.38 48 1013.4
20260506203004 54 247 3.0 3.0 0.00 0.38 0.38 50 1013.6
20260506202502 54 344 1.0 2.0 0.00 0.38 0.38 46 1013.4
20260506201958 53 9 2.0 2.0 0.00 0.38 0.38 49 1013.2
20260506201456 53 359 1.0 1.0 0.00 0.38 0.38 50 1013.2
20260506200952 53 284 2.0 2.0 0.00 0.38 0.38 46 1013.2
20260506200449 53 311 5.0 6.0 0.00 0.38 0.38 44 1013.6
20260506195945 53 244 2.0 2.0 0.00 0.38 0.38 47 1013.5
20260506195442 53 319 1.0 1.0 0.00 0.38 0.38 47 1013.3
20260506194939 53 59 3.0 5.0 0.00 0.38 0.38 46 1013.7
20260506194436 54 311 3.0 5.0 0.00 0.38 0.38 47 1013.7
20260506193933 54 296 6.0 7.0 0.00 0.38 0.38 43 1013.5
20260506193430 55 40 1.0 1.0 0.00 0.38 0.38 49 1013.3
20260506192926 55 27 3.0 3.0 0.00 0.38 0.38 53 1013.2
20260506192424 55 20 1.0 1.0 0.00 0.38 0.38 51 1013.2
20260506191920 55 7 2.0 3.0 0.00 0.38 0.38 53 1013.5
20260506191417 55 347 4.0 5.0 0.00 0.38 0.38 53 1013.7
20260506190914 55 220 1.0 2.0 0.00 0.38 0.38 53 1013.5
20260506190410 54 295 2.0 3.0 0.00 0.38 0.38 58 1013.5
20260506185907 54 23 2.0 2.0 0.00 0.38 0.38 54 1013.6
20260506185404 55 264 3.0 3.0 0.00 0.38 0.38 52 1013.4
20260506184901 55 33 3.0 6.0 0.00 0.38 0.38 50 1013.7
20260506184358 56 300 1.0 2.0 0.00 0.38 0.38 55 1013.7
20260506183855 56 114 0.0 0.0 0.00 0.38 0.38 53 1013.6
20260506183350 56 20 1.0 5.0 0.00 0.38 0.38 51 1013.6
20260506182848 55 319 5.0 7.0 0.00 0.38 0.38 51 1013.4
20260506182345 55 90 3.0 3.0 0.00 0.38 0.38 57 1013.4